Observations for Trim Market St
| Time | AQI | Temp °C | Hum % | Pres Pa | CO μg/m³ | H₂S μg/m³ | NO μg/m³ | NO₂ μg/m³ | O₃ μg/m³ | SO₂ μg/m³ | PM1 μg/m³ | PM2.5 μg/m³ | PM10 μg/m³ |
|---|---|---|---|---|---|---|---|---|---|---|---|---|---|
| Tuesday 25 August 2026 | |||||||||||||
| 22:30 | 2 | 16.9 | 83 | 2,147,483,647 | 0.36 | 0 | 1.46 | 26.09 | 30.05 | 0 | 9.98 | 12.24 | 17.4 |
| 22:29 | 2 | 16.9 | 83 | 2,147,483,647 | 0.37 | 0 | 1.47 | 24.14 | 25.73 | 0 | 7.84 | 8.51 | 13.02 |
| 22:28 | 2 | 16.9 | 83 | 2,147,483,647 | 0.33 | 0 | 1.46 | 22.23 | 31.43 | 0 | 7.13 | 8.04 | 12.47 |
| 22:27 | 2 | 16.9 | 83 | 2,147,483,647 | 0.34 | 0 | 1.54 | 26.1 | 31.44 | 0 | 7.84 | 10.38 | 15.76 |
| 22:26 | 2 | 16.9 | 83 | 2,147,483,647 | 0.35 | 0 | 1.48 | 28.28 | 28.15 | 0 | 6.41 | 8.97 | 14.11 |
| 22:25 | 2 | 16.9 | 83 | 2,147,483,647 | 0.34 | 0 | 1.47 | 29.55 | 27.59 | 0 | 7.13 | 8.51 | 13.02 |
| 22:24 | 2 | 16.9 | 83 | 2,147,483,647 | 0.33 | 0 | 1.53 | 22.69 | 29.74 | 0 | 5.7 | 6.64 | 13.57 |
| 22:23 | 2 | 16.9 | 83 | 2,147,483,647 | 0.34 | 0 | 1.42 | 24.86 | 25.87 | 0 | 6.41 | 8.98 | 13.02 |
| 22:22 | 2 | 16.9 | 83 | 2,147,483,647 | 0.34 | 0 | 1.65 | 33.95 | 23.02 | 0 | 7.84 | 8.05 | 11.92 |
| 22:21 | 2 | 16.9 | 83 | 2,147,483,647 | 0.35 | 0 | 1.84 | 24.37 | 25.99 | 0 | 7.84 | 8.98 | 13.57 |
| 22:20 | 2 | 16.9 | 83 | 2,147,483,647 | 0.38 | 0 | 1.87 | 33.34 | 25.9 | 0 | 5.7 | 7.58 | 11.92 |
| 22:19 | 2 | 16.9 | 83 | 2,147,483,647 | 0.54 | 0 | 2.28 | 26.05 | 30.53 | 0 | 7.84 | 9.45 | 14.13 |
| 22:17 | 2 | 16.9 | 83 | 2,147,483,647 | 0.46 | 0 | 1.72 | 41.9 | 39.05 | 0 | 6.41 | 8.06 | 13.03 |
| 22:16 | 2 | 16.9 | 83 | 2,147,483,647 | 0.67 | 0 | 1.71 | 35.89 | 20.99 | 0 | 2.85 | 4.78 | 8.08 |
| 22:15 | 2 | 16.9 | 83 | 2,147,483,647 | 0.35 | 0 | 1.31 | 28.46 | 29.54 | 0 | 7.13 | 8.06 | 12.48 |
| 22:07 | 2 | 16.9 | 83 | 2,147,483,647 | 0.32 | 0 | 2.47 | 22.58 | 34.1 | 0 | 6.41 | 8.54 | 13.6 |
| 22:02 | 3 | 16.9 | 83 | 2,147,483,647 | 0.32 | 0 | 1.06 | 27.69 | 30.53 | 0 | 7.13 | 8.07 | 12.49 |
| 22:01 | 3 | 16.9 | 83 | 2,147,483,647 | 0.31 | 0 | 1.03 | 20.39 | 38.22 | 0 | 7.84 | 8.07 | 12.49 |
| 22:00 | 3 | 16.9 | 83 | 2,147,483,647 | 0.31 | 0 | 1.08 | 23.02 | 30.92 | 0 | 9.26 | 11.82 | 16.36 |
| 21:59 | 3 | 16.9 | 83 | 2,147,483,647 | 0.3 | 0 | 1.15 | 23.49 | 35.03 | 0 | 8.55 | 9.95 | 15.26 |